Volver al catálogo

STARLINK-11670

ActivoComunicacionesVLEO
NORAD 64237·PAYLOAD·🇺🇸 United States

Lanzado Jun 3, 2025 desde Cape Canaveral Space Force Station

Loading…

Próximos Pases (próximas 24 horas)

TLE

ActualizadoSource: CelesTrak SupGP

Época: Sep 15, 2026, 02:32 UTC

1 64237C 25119E   26258.10604167  .00071689  00000+0  55680-3 0  2583
2 64237  43.0004 147.6592 0001581 270.1186  25.2859 15.70803383    19

Sigue STARLINK-11670 en tiempo real con AllMySat

Download on the App Store